Theta_e
361 363 366 365 364 364 366 367 368 368 367 367 367 368 368 368 368 367 367 367 367 366 367 366 367 367 367 367 367 366 366 366 366 366 365 365 365 365 365 365 365 365 363 363 364 364 365 364 365 365 365 364 362 363 363 363 363 361 361 357 357 358 359 360 360 360 361 361 361 361 360 360 357 357 357 359 359 359 361 360 362 358 361 362 362
359 362 365 368 364 364 366 367 368 368 367 367 367 367 368 368 368 367 367 367 367 367 367 367 367 367 367 367 367 366 366 366 366 366 365 365 365 365 365 365 365 364 364 363 362 364 363 363 364 365 362 363 363 362 358 360 361 363 362 359 355 357 359 358 360 360 360 360 361 360 360 361 359 357 357 357 356 359 360 359 360 360 360 362 363
360 363 365 367 365 365 367 367 367 367 367 367 367 367 368 368 368 368 368 368 368 367 368 367 367 368 368 368 367 367 367 367 366 364 364 364 364 364 364 365 365 363 364 363 362 360 357 362 363 363 363 360 358 357 354 357 361 362 364 358 356 353 358 358 357 359 360 360 360 360 361 360 360 358 357 357 356 357 359 357 358 361 361 363 362
360 363 365 367 365 365 367 367 366 366 367 368 368 368 368 368 368 368 368 368 368 367 367 368 368 367 367 368 367 367 367 366 363 363 364 364 364 365 365 365 365 365 365 364 362 362 361 362 362 360 361 360 359 359 355 356 362 362 362 362 357 355 356 356 354 354 359 359 360 359 360 359 360 358 357 356 356 356 357 358 359 362 362 362 362
360 362 365 366 369 368 368 367 367 366 367 368 368 369 369 369 368 368 368 368 368 368 367 367 368 368 367 367 367 367 367 363 362 363 364 364 364 365 365 365 365 365 363 364 363 362 362 360 356 354 356 360 359 358 360 356 361 362 362 362 360 358 353 355 355 358 358 357 358 359 359 360 360 360 358 356 355 354 357 357 361 364 362 361 359
359 363 364 364 366 368 368 367 366 366 367 368 368 368 368 369 368 368 368 368 368 368 368 368 368 367 367 367 367 366 365 362 363 365 365 365 364 365 365 365 365 365 362 362 361 361 360 356 356 356 358 359 359 359 360 358 358 362 363 362 362 361 358 355 357 359 357 358 356 363 360 360 358 358 358 359 356 356 357 359 363 362 361 359 359
360 363 364 364 366 367 368 368 367 367 368 368 369 368 369 368 368 368 368 367 367 367 367 367 366 367 366 366 365 366 365 364 365 366 365 365 364 364 365 364 363 363 361 362 360 360 357 357 357 359 360 359 360 360 360 359 357 361 360 360 361 361 361 358 359 360 359 358 354 362 360 361 357 355 357 357 359 359 359 361 362 362 361 359 358
362 363 363 362 365 368 368 368 368 367 368 368 369 369 369 368 367 367 368 367 367 367 366 366 366 365 365 365 365 365 365 364 364 364 363 363 364 365 365 365 363 362 362 362 360 358 356 358 359 359 359 359 359 359 361 360 360 361 361 361 361 360 361 361 360 360 358 360 361 360 359 359 358 355 355 356 358 360 362 362 362 361 360 359 358
361 363 365 364 367 368 368 368 368 367 368 368 369 368 368 367 367 368 368 367 367 367 366 365 365 365 365 364 364 364 364 363 364 365 364 365 364 364 365 364 364 364 364 363 361 359 358 357 357 357 357 357 358 357 358 360 360 359 360 360 360 359 359 359 359 361 361 358 363 363 361 360 357 356 355 356 358 360 362 361 361 359 358 359 358
362 363 365 365 368 369 368 368 368 368 367 368 368 368 368 367 367 367 366 366 366 365 365 365 365 364 363 364 365 364 365 365 365 365 365 366 365 365 365 364 364 364 363 362 360 360 359 357 357 356 356 356 357 357 357 359 359 359 359 359 360 359 359 360 360 360 362 356 361 363 363 359 359 359 356 356 359 361 358 358 356 357 358 359 358
362 363 364 365 370 369 368 368 368 367 367 368 368 368 367 367 367 366 366 365 365 365 365 365 364 362 363 363 364 364 364 364 364 363 364 364 363 364 365 363 362 363 362 361 361 358 358 356 355 354 354 356 356 358 359 360 359 359 358 358 359 359 359 359 356 361 364 361 359 360 362 359 358 356 354 358 358 357 357 356 356 358 359 357 359
362 363 364 366 370 369 368 368 368 367 368 368 368 368 367 366 366 365 366 365 365 364 364 365 363 362 363 362 363 364 364 362 363 363 363 364 364 365 365 364 364 362 361 360 359 358 356 356 355 354 354 356 356 357 358 358 359 358 358 357 358 359 359 360 361 360 364 362 360 359 357 351 358 354 356 359 357 356 357 356 357 358 358 359 360
360 361 364 366 371 369 368 368 367 367 367 368 368 367 367 366 366 365 365 365 364 365 364 363 363 363 363 363 363 363 362 362 362 363 363 363 364 364 364 365 364 363 359 360 358 356 356 356 355 355 355 356 356 357 357 357 357 358 358 357 358 359 360 359 364 362 362 360 359 362 360 358 356 351 360 358 358 357 356 357 358 358 358 360 360
357 359 363 365 367 369 368 368 368 367 367 368 368 367 367 366 365 365 364 364 365 364 363 363 362 363 363 364 363 362 362 363 362 363 363 363 364 364 364 364 364 362 360 358 356 356 356 356 357 358 357 357 357 357 357 356 358 358 357 357 358 358 357 359 359 365 364 361 356 359 359 357 362 359 359 358 357 357 357 359 359 358 359 360 360
357 359 363 364 366 368 368 368 368 367 366 367 367 367 366 366 365 364 364 365 365 364 363 363 363 364 364 364 363 363 363 363 363 363 363 363 363 363 364 363 361 359 355 356 353 355 357 358 359 358 358 357 357 357 356 356 355 357 356 355 358 357 357 368 366 366 364 365 364 358 357 356 357 359 359 358 357 357 359 359 357 359 359 359 359
360 361 362 363 366 368 369 368 368 366 366 367 367 366 365 365 364 364 364 364 364 364 363 365 364 364 365 364 363 363 363 363 363 363 363 364 364 363 363 363 360 356 355 358 357 358 359 359 359 358 357 356 356 355 356 356 356 356 355 355 356 358 359 360 363 365 363 363 365 362 362 358 359 360 358 358 358 359 360 357 359 359 359 359 359
361 362 360 363 365 367 366 370 368 366 367 366 366 365 364 364 364 364 364 364 364 365 365 364 365 365 364 364 364 364 363 363 363 363 364 364 364 363 363 362 355 355 354 356 358 358 358 357 356 355 355 355 355 353 354 355 356 356 356 355 356 357 357 359 362 363 362 365 366 364 364 359 361 360 359 358 359 360 359 357 358 359 358 358 358
361 361 360 362 364 364 365 367 368 369 369 367 365 364 364 364 363 365 364 364 364 364 364 364 364 365 364 364 364 364 364 364 364 364 364 364 364 363 363 362 357 356 355 355 355 355 356 356 356 356 355 355 353 353 355 356 355 355 357 356 356 356 359 359 362 362 363 363 363 365 364 359 361 360 359 358 359 360 359 358 358 358 358 358 359
359 360 360 362 364 365 364 366 369 366 367 366 367 366 363 363 364 365 365 364 363 364 364 364 365 365 364 364 364 364 364 364 365 365 365 364 364 363 364 362 359 353 353 352 352 354 354 355 356 356 356 355 354 355 356 356 356 355 356 356 356 357 357 358 360 361 363 363 363 363 364 361 360 360 360 359 360 360 359 358 359 359 359 359 359
359 360 361 361 364 365 364 365 366 365 364 364 366 365 364 364 364 364 366 364 363 364 365 364 364 364 364 365 365 366 366 368 365 366 366 365 365 365 364 364 356 356 351 351 352 354 354 354 354 354 355 354 354 355 355 355 357 356 356 357 357 357 361 362 362 362 362 359 363 363 364 363 361 361 360 360 361 360 359 359 359 359 359 360 360
357 357 359 361 363 364 364 365 366 365 363 365 365 366 365 364 365 365 366 364 365 364 366 363 365 364 364 365 365 367 370 369 365 363 365 366 364 364 364 363 362 358 352 351 354 354 354 353 356 355 356 356 355 355 356 356 356 356 357 357 357 361 364 364 363 362 361 361 361 361 363 362 363 361 360 360 361 361 360 359 360 360 360 360 360
351 352 357 360 360 362 364 365 366 366 364 363 362 364 366 366 366 367 369 366 365 365 367 366 365 367 363 365 369 368 365 369 365 362 364 367 364 364 364 364 365 365 359 356 355 355 356 356 356 358 357 356 357 359 358 357 357 356 357 357 360 363 363 363 363 361 362 361 363 364 362 362 363 362 361 361 360 360 360 360 360 360 361 361 361
347 351 354 357 360 360 361 363 365 366 364 363 362 365 364 366 366 367 366 365 365 366 366 366 366 367 367 367 368 366 365 367 368 367 370 364 362 366 364 365 365 365 366 360 356 356 357 357 358 359 357 356 357 363 363 361 360 357 357 361 364 364 363 363 363 362 362 362 361 361 360 359 362 363 361 362 361 360 360 361 360 360 361 361 361
348 350 352 357 358 358 359 358 364 365 362 361 361 361 363 364 362 364 365 366 366 366 366 366 366 366 365 366 365 366 366 367 367 364 364 365 363 367 366 366 367 366 365 354 355 357 354 358 360 358 356 357 361 361 361 361 357 356 358 359 361 363 363 362 361 362 362 363 362 360 359 359 360 362 362 362 362 361 361 361 361 361 360 360 361
352 352 354 354 358 360 359 358 363 364 363 360 361 358 362 361 362 361 363 363 363 363 365 366 365 366 366 367 359 363 361 362 364 362 360 360 359 363 364 368 369 370 365 369 362 356 356 359 358 356 356 357 361 362 360 360 358 355 356 358 361 363 363 363 361 361 362 365 363 359 359 359 360 361 362 361 362 361 361 362 362 361 361 361 361
353 351 352 354 355 358 359 359 361 364 361 360 360 358 362 359 361 360 361 362 362 362 362 364 365 366 366 363 362 360 360 358 361 362 360 361 357 358 362 368 368 367 367 366 363 366 367 364 361 360 360 360 362 363 361 363 362 358 357 358 361 363 363 363 362 363 363 364 365 358 359 360 360 361 362 361 360 360 361 361 362 361 361 362 361
352 352 354 355 355 355 358 359 360 361 361 361 361 361 359 359 361 362 360 360 361 361 361 360 362 366 366 363 357 351 350 350 353 358 358 357 356 354 359 365 367 364 364 364 363 365 366 367 368 366 366 366 363 362 361 364 365 364 359 358 362 361 362 362 363 364 362 364 364 359 359 360 360 360 361 361 360 360 361 361 361 362 361 361 363
355 352 352 353 355 354 359 357 360 360 362 360 363 359 360 360 360 362 363 359 360 360 358 360 359 364 366 363 362 352 347 347 350 351 351 353 352 354 356 358 364 362 363 363 362 364 365 365 365 367 365 365 363 364 363 364 364 364 361 356 360 360 361 361 364 365 364 364 365 360 359 360 360 360 360 361 360 360 360 361 360 361 361 361 362
352 352 352 351 352 353 358 357 358 360 360 360 358 360 360 362 360 360 361 363 363 359 359 362 361 360 363 367 367 354 348 347 347 348 351 349 350 351 349 349 359 362 364 360 362 365 365 364 364 362 367 366 364 364 365 364 366 365 361 355 353 357 362 362 363 364 364 362 364 363 360 360 360 360 360 360 361 360 360 361 361 361 361 362 362
353 355 354 355 355 355 355 355 356 359 359 358 360 360 360 360 362 362 360 365 361 361 364 357 356 354 355 364 362 357 348 345 346 347 347 349 350 349 349 348 353 362 361 360 363 362 363 363 366 362 365 365 364 365 364 364 364 363 361 360 359 358 362 361 362 361 364 363 363 363 360 360 360 360 360 360 360 360 361 361 361 361 361 361 362
354 354 356 357 358 357 355 358 358 361 360 356 359 360 363 362 362 362 364 364 361 364 362 358 354 352 355 364 368 366 355 348 346 348 349 348 349 350 348 349 350 360 362 360 363 365 364 362 363 363 362 363 364 366 363 359 363 362 361 359 356 359 361 362 361 361 363 362 363 364 364 361 361 360 360 360 360 361 361 360 361 361 361 362 362
358 356 357 356 355 356 357 361 361 362 364 361 362 361 362 363 365 363 363 364 366 362 359 358 356 353 357 363 366 359 359 350 349 352 348 348 347 347 347 349 350 359 364 361 361 365 365 365 365 364 365 364 366 364 364 360 360 357 359 361 361 360 361 361 362 362 362 363 365 365 366 364 362 361 361 360 360 361 361 361 361 362 361 362 362
357 358 359 354 353 357 359 360 360 361 361 361 361 362 363 362 363 364 366 367 369 368 364 364 363 363 363 364 365 365 363 355 351 356 356 349 347 347 347 350 351 359 363 362 361 367 365 363 363 363 361 361 363 361 361 362 363 363 361 363 362 362 363 362 362 363 362 363 364 363 365 365 365 362 362 361 360 361 361 362 362 360 361 361 362
356 359 357 355 357 358 357 360 357 354 354 356 357 358 360 360 361 365 367 368 366 366 366 366 367 368 370 370 368 367 365 362 360 358 359 353 352 350 349 347 351 356 364 364 361 361 360 364 360 360 359 363 361 361 358 357 361 359 360 364 363 363 362 362 362 362 362 364 364 365 363 364 364 365 363 361 361 361 361 361 362 362 362 362 362
354 355 355 357 358 357 357 355 358 356 356 354 356 358 358 358 360 360 363 367 366 366 365 366 364 366 367 366 369 369 370 367 366 361 357 356 352 350 349 348 353 361 360 361 361 362 361 362 362 363 367 363 360 361 360 359 361 360 360 362 363 364 363 361 361 362 362 364 364 364 366 365 363 363 364 363 361 361 361 361 361 361 361 361 362
354 356 355 355 354 356 359 356 359 359 357 356 356 360 360 358 359 360 357 363 362 361 363 363 362 362 365 366 369 370 370 370 370 367 359 357 353 351 350 352 354 357 359 361 364 361 361 359 364 361 357 356 363 362 362 359 360 363 362 361 363 362 362 363 363 363 364 365 364 365 366 365 365 363 363 363 364 362 362 361 361 361 361 361 362
354 355 355 354 354 357 359 358 357 358 359 360 360 358 360 358 358 359 354 356 358 356 363 360 361 361 361 361 364 367 369 369 372 370 362 359 355 354 351 352 353 353 357 358 360 360 359 355 364 364 362 361 357 358 360 360 361 361 361 362 363 360 362 363 364 364 365 364 364 364 364 366 365 362 366 363 365 365 363 362 361 361 361 361 362
356 356 355 354 356 357 357 356 358 359 361 362 360 359 358 358 357 358 356 355 358 360 362 362 362 362 360 360 363 365 367 369 371 370 366 360 359 357 358 358 358 359 359 358 358 359 361 359 358 364 363 360 358 357 358 356 357 355 357 359 360 360 360 362 364 362 365 363 362 363 364 365 364 365 364 364 363 363 366 363 362 362 362 362 362
357 357 356 356 356 358 359 357 358 358 359 359 359 357 356 356 357 353 355 356 357 359 362 362 360 362 360 360 364 364 365 368 369 371 367 362 360 359 360 362 363 360 361 360 359 360 359 359 358 358 363 361 358 360 360 358 355 354 353 357 360 360 362 364 365 362 363 365 363 362 365 364 364 365 367 366 363 363 364 367 363 364 363 363 363
357 358 359 357 356 356 356 357 357 358 356 355 357 355 355 355 352 354 355 356 357 360 361 362 361 361 360 363 363 363 364 365 368 369 369 364 361 359 360 361 362 361 360 358 357 356 358 359 360 355 358 360 361 359 358 356 355 355 355 358 357 359 360 363 363 365 365 366 365 363 362 365 365 365 365 366 366 365 364 365 365 363 363 364 363
357 359 359 359 359 356 357 356 357 358 358 355 354 353 352 352 353 352 353 355 358 357 360 362 361 359 359 361 363 364 363 365 366 368 367 367 365 362 362 362 362 362 360 359 359 358 359 360 359 364 355 355 354 357 358 357 353 351 357 357 358 359 360 361 365 364 365 364 364 362 362 364 366 364 365 366 366 366 366 365 363 365 365 366 365
355 356 355 358 360 360 359 359 360 360 361 358 357 356 358 356 357 357 357 357 357 358 357 361 360 360 361 362 362 360 361 365 366 368 368 366 364 362 362 361 361 362 362 363 363 362 363 360 357 355 359 352 352 353 353 355 349 348 347 349 352 358 360 361 366 365 365 364 364 362 364 363 364 365 366 366 366 365 365 365 365 363 363 364 367
356 356 356 356 358 360 360 360 361 362 360 355 354 355 360 358 356 355 358 359 363 362 359 361 360 358 361 360 360 359 364 365 366 366 365 364 364 363 361 359 359 360 361 363 363 361 361 358 358 354 351 353 352 353 356 355 345 349 352 346 346 342 350 360 364 364 363 365 365 364 363 362 363 366 366 365 364 365 363 364 364 364 364 362 361
356 357 357 356 357 358 359 361 362 363 362 360 360 363 364 365 363 360 359 357 355 359 358 360 359 358 357 359 362 361 365 363 360 361 364 360 362 363 361 358 357 361 360 361 362 359 361 357 354 356 355 350 349 350 354 356 353 348 343 346 346 341 340 339 347 354 365 364 365 364 364 362 364 365 365 364 363 364 364 363 361 364 364 364 363
353 354 356 357 359 359 360 362 362 363 364 364 364 364 360 359 359 358 358 357 357 355 355 354 356 357 357 360 361 363 365 363 362 361 362 359 364 365 364 360 358 359 359 360 361 357 357 356 356 355 355 351 346 347 353 354 352 353 347 343 344 344 342 347 345 352 361 361 364 366 366 362 365 364 364 364 366 365 365 364 364 364 365 365 365
352 354 356 358 360 360 360 359 360 361 363 364 364 363 359 356 355 352 350 351 350 351 349 350 353 354 356 361 364 362 362 362 360 362 357 363 363 366 366 363 359 359 359 359 360 358 357 355 356 354 353 355 353 348 348 356 353 355 354 350 350 344 342 345 342 341 356 357 362 363 367 366 367 365 364 364 366 365 365 365 364 365 366 366 365
353 355 355 355 357 358 360 360 361 361 361 361 363 363 361 359 357 355 354 351 349 351 355 356 356 358 360 359 360 361 361 361 361 360 360 360 364 364 367 366 363 360 361 361 360 358 355 355 355 354 353 354 355 349 349 348 354 353 353 352 353 354 353 348 344 344 341 353 356 360 363 367 367 367 364 365 367 367 366 366 366 366 366 365 365
355 356 355 355 355 355 356 357 359 359 359 360 362 364 362 361 361 360 358 355 353 354 357 358 359 360 358 357 358 359 359 361 362 357 361 358 360 364 366 367 363 362 360 360 359 358 356 355 356 356 356 355 355 352 351 348 346 351 353 352 353 351 353 355 354 347 344 341 347 356 361 365 365 365 366 364 365 367 366 366 366 366 366 367 366
353 354 356 356 357 356 355 356 355 357 357 358 359 361 362 361 360 358 358 359 359 357 357 356 355 357 359 360 360 357 358 360 362 360 358 361 360 363 364 365 363 363 363 360 359 359 358 355 356 357 357 356 355 355 354 350 348 345 350 353 351 351 352 355 354 353 348 344 343 346 350 364 365 364 364 366 367 368 367 367 367 368 368 368 369
350 353 353 353 354 356 355 355 355 356 357 357 357 357 358 359 358 359 359 358 358 357 357 356 358 360 358 359 359 360 358 360 359 361 362 363 363 365 363 363 364 362 360 358 358 360 359 358 357 358 360 358 357 353 353 352 350 349 348 350 352 354 352 350 352 352 352 352 344 343 347 346 350 357 363 364 366 367 366 365 368 365 366 368 369
348 350 350 351 352 352 353 353 354 355 356 356 356 355 355 356 358 359 357 355 356 356 356 356 357 359 358 357 358 359 360 358 360 359 360 360 363 364 363 362 362 363 361 359 361 358 358 357 358 359 358 357 354 354 353 353 351 350 349 348 349 350 351 350 350 351 349 350 349 349 350 352 352 349 355 359 365 368 368 366 367 366 366 368 369
Wind_Speed
10 11 11 10 6 4 8 9 10 11 12 12 12 14 15 16 15 15 14 14 14 14 14 14 14 13 14 14 14 13 11 10 10 9 8 8 7 7 7 7 7 8 8 8 8 8 9 8 8 9 9 9 9 8 7 8 8 11 13 20 19 12 7 11 14 13 12 11 10 10 11 13 16 16 12 15 16 16 15 15 15 11 11 12 16
13 12 11 11 7 4 9 9 10 12 12 12 13 14 15 15 15 15 15 14 14 14 13 13 13 13 13 14 13 12 11 10 10 9 8 7 7 7 7 7 7 7 8 8 10 9 10 8 8 9 10 10 10 9 10 5 8 11 10 14 19 11 10 9 12 13 14 13 13 13 12 11 15 18 17 16 15 15 15 13 14 11 10 15 16
14 12 12 12 9 6 10 10 11 12 12 13 13 15 15 16 15 15 14 14 13 13 12 13 13 13 13 13 13 12 11 11 10 8 7 7 6 6 7 7 7 7 8 8 10 12 9 6 8 9 10 11 11 12 11 9 7 9 10 14 20 15 13 11 9 9 11 13 14 14 12 9 12 16 18 18 13 14 15 10 5 10 11 16 16
15 11 12 12 9 7 11 11 12 12 13 13 14 14 15 15 15 15 14 14 13 13 13 13 13 14 13 13 13 13 12 11 9 8 7 7 7 7 7 7 7 7 8 9 9 11 10 9 11 14 12 12 10 9 7 4 7 8 9 11 18 16 16 13 11 3 7 11 14 14 7 9 9 13 19 20 14 11 11 11 8 13 17 15 15
14 12 12 12 12 10 10 12 12 12 13 13 13 14 14 15 15 15 15 14 13 13 14 14 14 14 13 13 12 12 12 10 9 8 7 7 7 7 7 7 7 7 8 8 9 11 11 15 15 10 4 9 9 4 9 6 10 9 10 10 12 19 21 19 18 11 7 4 5 7 9 8 8 10 13 18 17 10 9 10 13 17 16 16 15
13 12 12 12 12 13 9 12 12 13 13 13 14 14 14 15 15 15 15 14 14 13 13 13 13 13 13 13 12 12 11 10 9 8 8 7 6 6 6 7 8 7 8 9 10 12 14 15 14 7 8 7 7 5 7 10 10 10 10 10 9 10 16 19 18 18 14 7 1 3 9 9 8 7 10 15 18 18 15 15 17 16 16 17 16
14 11 11 12 11 12 10 11 12 13 13 14 14 14 13 14 14 14 14 14 13 13 12 12 12 12 12 12 11 11 10 10 9 8 8 7 6 6 7 7 7 7 9 8 11 13 18 13 9 11 9 7 6 6 8 9 9 10 10 9 8 7 9 12 15 17 18 11 3 4 4 7 8 6 9 10 12 16 18 17 18 18 17 17 17
11 10 11 11 11 13 11 11 12 13 13 14 14 14 13 13 13 13 13 13 13 12 12 11 11 11 11 11 10 10 9 9 9 8 7 7 7 6 7 7 7 7 9 9 11 16 13 9 9 10 8 7 7 7 8 8 9 9 10 9 8 6 5 8 9 12 15 6 9 4 3 1 6 8 10 9 10 9 9 14 17 16 16 17 15
12 12 11 11 12 16 12 12 12 13 13 14 14 14 14 13 13 13 12 12 12 11 11 10 9 9 9 9 9 9 9 9 8 8 8 7 7 6 6 7 6 7 8 9 12 15 11 8 8 9 8 7 6 6 6 6 8 8 9 9 8 6 4 4 3 3 9 9 8 7 4 1 1 5 11 13 14 12 12 15 15 15 15 15 16
12 11 11 10 12 15 13 13 12 13 13 14 14 14 13 13 13 13 12 11 11 11 10 9 8 8 7 8 9 9 9 9 9 9 8 7 6 6 6 7 7 7 8 10 13 14 9 7 8 8 8 7 6 5 4 4 6 7 10 8 7 6 4 4 3 3 2 10 8 9 7 4 2 1 4 9 11 14 13 10 9 12 13 15 14
14 11 11 11 16 15 13 12 12 13 13 13 13 13 13 13 13 12 12 11 10 10 9 9 8 7 7 8 8 8 8 8 8 8 8 8 8 7 8 8 8 9 12 11 14 11 8 7 7 7 7 7 6 5 6 6 5 6 8 8 6 7 4 3 1 2 2 7 8 8 9 8 6 1 5 6 5 8 8 8 11 12 14 14 16
14 11 11 11 16 16 14 12 12 12 13 13 13 13 12 12 12 12 11 11 10 10 9 9 8 7 7 6 7 7 7 7 7 7 7 7 7 8 7 8 8 9 13 12 14 10 7 7 6 6 6 5 4 4 4 4 4 3 4 6 7 7 5 3 4 2 2 5 5 7 10 8 6 9 16 10 9 8 7 8 10 12 12 15 16
14 12 11 13 13 15 14 13 13 13 13 13 12 12 12 11 11 11 11 10 10 9 9 8 8 8 7 6 6 6 6 6 6 6 6 6 7 7 7 7 8 9 15 13 14 8 7 5 7 5 5 4 3 3 3 4 3 3 2 4 3 5 4 1 2 1 2 6 2 2 6 6 10 18 14 13 12 10 10 10 12 13 14 16 16
14 13 11 12 12 15 14 14 13 13 13 12 12 12 11 11 10 10 9 9 8 8 8 7 8 7 7 7 5 5 6 5 5 5 5 5 6 6 7 6 8 7 15 17 11 7 7 3 6 7 4 4 4 3 3 3 4 2 4 4 2 3 2 1 1 2 3 7 4 3 2 4 6 11 13 13 14 13 13 13 13 14 16 16 16
13 13 12 12 13 12 15 15 14 14 13 12 11 11 11 10 9 9 9 8 8 8 8 8 8 7 7 7 6 5 5 5 5 5 4 5 5 5 6 6 7 13 17 17 8 8 7 6 7 8 7 5 4 3 3 2 2 4 2 3 3 2 1 1 2 2 4 4 7 5 11 4 10 10 12 13 13 14 14 15 15 16 16 16 16
12 13 13 12 12 12 12 14 15 14 13 11 11 11 10 10 9 9 9 8 8 9 8 8 8 7 7 7 6 6 5 5 4 4 4 4 4 4 4 7 14 13 14 11 11 9 7 8 7 6 6 6 5 2 2 4 2 3 2 1 4 2 3 4 1 2 3 4 4 7 9 7 15 13 13 13 14 15 15 15 16 16 16 16 16
12 12 12 12 13 12 11 12 13 15 13 12 10 10 10 10 10 9 9 9 9 9 9 9 8 7 7 7 7 6 5 4 5 4 4 3 4 4 3 7 16 13 8 10 9 8 6 5 5 4 4 4 4 1 2 2 2 2 3 2 1 2 4 5 3 2 2 2 2 3 4 9 12 13 13 14 14 15 14 14 15 15 15 16 16
11 11 11 12 11 12 11 11 12 12 11 11 10 10 10 10 10 10 9 9 10 10 9 9 8 8 8 8 7 6 6 6 5 5 4 3 3 3 4 5 17 14 7 6 7 6 5 5 4 4 4 4 1 2 3 3 2 1 2 2 4 4 5 7 4 2 2 1 4 3 4 9 14 12 14 14 14 15 15 14 14 15 15 15 14
10 10 10 11 11 11 11 11 11 10 10 8 8 9 10 10 10 10 10 10 10 10 10 9 9 8 8 8 8 7 7 7 6 5 5 3 3 3 5 5 16 12 5 4 2 3 4 5 5 4 5 4 1 2 3 3 2 2 2 3 2 4 4 5 5 2 2 4 4 4 5 15 12 12 13 13 14 14 14 15 15 14 14 14 14
9 9 9 10 10 11 10 10 10 10 9 8 7 8 9 10 10 11 10 10 9 10 9 9 8 8 7 7 7 7 8 7 7 7 6 3 4 4 5 6 12 14 6 1 4 4 2 4 4 3 4 3 3 3 3 3 4 3 4 4 4 4 4 4 3 3 3 3 2 4 11 12 11 11 12 13 13 13 14 14 14 14 13 13 13
8 10 9 9 10 11 11 9 10 10 10 8 7 7 8 10 10 10 10 9 10 9 9 8 8 7 7 7 6 7 5 5 7 4 7 3 4 4 3 3 6 11 16 2 3 6 4 5 7 7 7 7 6 6 5 5 5 3 5 5 5 4 3 3 4 4 4 4 4 3 13 10 10 10 11 13 13 13 13 13 13 13 13 13 13
9 9 9 9 10 10 11 10 9 10 9 7 6 6 7 9 9 8 8 9 9 9 8 7 7 6 8 6 6 5 4 4 3 2 3 3 5 4 2 2 3 2 13 12 3 4 6 5 7 9 7 6 8 5 5 6 6 4 5 5 5 4 3 4 4 4 4 4 4 7 10 10 9 10 12 11 12 13 13 13 13 13 12 13 12
10 9 8 10 9 9 10 10 9 9 9 7 5 6 7 8 8 8 7 8 8 8 7 7 6 5 6 6 5 4 4 3 2 2 4 3 1 3 1 3 2 1 4 13 7 0 4 7 7 10 8 8 4 3 3 4 4 7 7 6 4 3 3 4 5 5 4 4 4 10 6 8 9 9 11 11 10 11 12 12 13 13 13 12 12
9 8 9 8 9 8 10 11 9 9 8 6 6 6 7 7 6 7 6 6 7 7 7 6 5 6 5 5 5 3 3 3 3 3 5 5 5 9 5 6 7 5 2 7 16 13 8 12 9 5 5 4 3 4 3 4 4 3 3 4 3 3 4 5 5 5 5 4 3 10 5 6 8 10 11 11 11 11 12 10 11 13 13 12 12
8 8 8 9 11 9 8 9 8 8 8 6 5 6 6 6 6 6 6 6 6 6 6 6 6 6 6 5 6 4 5 4 3 3 3 1 2 2 1 2 2 1 3 2 10 14 12 10 9 6 3 4 5 4 4 4 3 5 5 3 3 4 4 4 4 5 5 4 5 9 6 7 9 10 11 12 12 12 11 12 12 11 11 12 12
7 8 8 9 10 10 9 8 9 8 8 6 6 5 6 6 6 6 6 6 6 6 5 6 6 6 5 6 5 4 4 4 3 2 2 2 3 2 1 2 2 2 1 2 3 3 3 6 7 6 8 7 5 4 4 2 4 6 5 4 4 4 4 4 4 5 5 5 5 9 8 8 10 10 11 13 13 13 13 13 12 12 13 13 12
6 7 7 7 8 9 9 9 8 8 9 7 6 5 6 5 5 6 6 6 6 6 6 5 5 5 5 5 6 5 5 4 3 2 3 3 2 3 2 2 3 3 3 2 3 3 2 3 3 4 5 4 4 3 2 2 2 3 4 5 4 4 4 4 4 5 5 5 5 10 9 9 10 10 11 13 14 14 13 14 14 14 14 15 13
5 7 7 7 7 10 9 9 8 8 7 8 6 5 5 6 5 5 6 5 5 6 5 5 4 5 5 5 5 5 4 4 3 3 3 3 3 3 3 3 2 3 2 3 2 3 3 4 1 2 3 2 3 3 3 3 3 2 1 2 4 4 4 4 4 4 5 5 5 10 9 10 10 11 11 12 13 14 15 15 15 15 15 16 14
5 6 6 7 7 7 8 9 8 9 8 7 7 6 6 6 6 6 6 4 5 5 5 4 5 5 5 5 5 5 4 5 4 4 2 3 3 4 4 3 3 3 3 2 2 2 3 4 0 1 2 1 2 3 1 1 1 1 2 5 2 6 4 5 5 4 5 4 5 8 12 10 10 10 11 12 12 14 15 15 15 14 14 14 15
5 5 4 4 5 7 8 9 9 7 7 7 6 7 6 6 6 5 5 5 6 5 4 5 5 5 5 5 4 5 5 5 4 3 4 4 5 5 5 4 3 3 3 3 2 2 2 3 4 1 0 2 2 2 1 1 0 2 2 2 3 5 3 4 4 5 4 4 5 5 12 9 9 10 11 12 12 13 14 15 15 15 15 14 14
6 6 5 4 4 5 7 8 8 7 7 8 7 7 7 7 6 6 6 6 6 5 5 5 5 5 4 3 4 4 5 5 5 4 4 5 5 5 5 5 3 4 2 3 2 2 3 3 4 3 1 2 2 1 2 1 0 2 1 3 5 4 3 4 4 4 4 5 5 5 9 12 10 10 11 12 12 13 13 14 15 15 15 13 13
7 7 4 3 5 6 7 6 7 7 7 8 8 8 8 8 8 7 7 7 6 6 6 6 5 5 4 4 4 5 4 6 6 5 5 5 5 6 5 5 3 5 3 3 4 3 2 2 4 2 3 2 1 2 1 3 1 2 4 4 1 2 3 3 4 5 5 4 4 5 6 9 13 12 12 13 13 13 13 13 14 15 15 14 14
6 6 3 3 4 5 5 6 5 6 7 9 8 7 6 7 8 7 7 6 6 6 6 6 6 5 4 5 5 5 5 6 5 5 6 6 6 6 6 5 4 4 4 5 5 3 2 1 2 2 1 1 1 1 1 1 1 1 1 2 1 2 2 4 4 4 5 5 5 5 5 6 8 13 14 14 14 14 14 14 15 15 15 15 15
5 4 4 5 5 3 4 1 1 3 3 8 7 5 4 6 8 7 6 6 6 6 6 6 6 5 5 5 6 6 5 5 6 6 5 6 6 6 6 6 4 4 5 4 4 3 3 2 1 2 1 1 0 1 1 1 1 1 1 2 2 2 3 5 4 4 4 5 4 4 4 5 6 7 10 15 15 15 15 15 15 15 15 16 15
6 7 6 4 6 7 7 4 3 4 5 7 8 6 4 5 5 9 8 7 6 6 6 7 7 6 6 5 6 6 6 6 5 5 6 5 6 7 7 6 5 3 5 4 4 4 3 3 1 2 2 2 1 0 1 1 2 1 1 2 3 2 4 4 4 4 4 4 4 5 5 5 6 6 7 8 14 16 16 15 16 16 16 16 16
8 7 8 6 6 8 8 6 6 5 6 7 7 6 7 7 6 4 10 7 7 7 7 8 8 7 6 6 5 6 6 6 6 6 6 6 6 6 6 6 5 5 5 4 5 5 4 4 2 3 2 1 1 1 1 2 1 2 2 2 3 4 4 5 5 5 4 4 5 5 5 5 5 5 6 6 7 12 17 15 15 16 16 16 16
7 8 7 7 8 9 9 10 10 10 9 8 8 8 8 8 8 5 7 7 4 8 8 9 8 8 7 7 5 6 6 6 6 7 7 7 7 7 7 8 7 6 5 6 5 5 5 5 3 3 2 2 2 2 2 2 2 3 3 3 4 5 5 5 5 5 5 5 4 4 5 5 5 5 6 6 7 7 15 17 15 16 16 16 16
6 8 9 9 10 8 8 8 8 9 7 7 8 6 7 6 7 6 7 7 6 6 5 4 7 8 8 8 7 6 6 6 7 7 6 7 7 7 6 7 6 5 5 6 6 6 5 5 5 4 4 4 3 3 2 3 2 3 4 4 3 6 6 5 4 5 5 5 5 4 4 4 5 6 6 6 7 7 8 15 17 16 16 16 16
3 6 7 8 7 6 5 6 7 7 6 8 7 6 7 8 6 8 9 8 9 7 6 6 5 5 8 9 6 6 7 7 7 6 7 7 7 7 7 7 6 6 6 6 7 7 6 6 6 5 4 5 5 3 4 1 4 3 3 6 7 9 6 5 5 5 5 6 5 5 4 5 5 6 6 6 6 7 7 7 10 10 12 18 16
4 5 7 8 8 7 6 7 9 9 7 6 5 5 5 6 8 9 10 10 9 7 9 9 6 6 7 7 8 8 6 7 7 7 7 7 7 7 7 7 7 7 7 7 7 6 7 6 7 7 6 6 6 6 6 8 5 7 11 12 13 10 8 7 6 5 5 5 6 5 5 5 6 6 7 6 6 7 7 8 8 10 10 15 19
1 3 4 6 6 7 7 8 7 8 7 6 7 7 8 8 9 10 9 9 8 9 9 9 8 8 10 9 5 10 8 7 7 7 7 7 7 7 7 7 7 8 7 7 8 8 6 5 5 4 8 8 7 6 5 4 4 4 2 2 1 7 9 6 7 6 5 6 5 5 5 5 5 6 7 7 7 7 7 8 8 8 8 8 13
1 1 2 3 4 6 7 6 5 6 6 5 5 7 7 7 5 6 6 6 7 6 7 8 9 8 9 8 4 6 13 8 7 7 8 8 8 8 8 8 8 8 8 8 8 7 7 7 7 7 7 8 7 7 4 4 6 4 2 2 3 3 1 5 6 5 7 6 6 6 6 6 6 6 5 6 7 7 8 8 8 9 9 9 8
3 2 2 2 3 3 4 4 5 5 6 6 7 8 7 7 8 8 6 5 5 4 7 6 4 9 9 8 7 8 10 7 7 9 8 9 9 8 8 8 9 9 8 9 9 9 8 9 9 8 7 7 7 6 5 5 6 3 2 3 3 3 4 2 2 5 8 6 6 7 6 7 8 6 6 6 6 7 7 8 8 8 9 9 9
2 1 1 2 2 2 2 3 3 4 5 7 7 6 7 7 7 7 7 7 7 6 7 7 9 11 11 10 8 10 10 7 8 12 7 9 9 9 9 9 9 9 9 9 9 10 9 9 9 9 8 8 7 7 6 6 6 4 4 2 2 2 2 4 7 7 7 8 7 7 7 6 7 8 6 6 6 6 7 8 9 9 9 9 9
4 3 2 2 2 3 3 3 2 3 3 3 5 5 5 5 5 5 6 6 7 7 7 8 8 8 9 9 9 10 9 9 10 11 7 10 7 9 9 9 9 10 9 10 10 11 11 10 10 9 9 8 8 7 5 6 7 5 5 4 3 3 3 3 4 2 5 5 7 8 7 8 8 8 7 7 6 7 7 8 8 8 9 9 9
5 4 4 4 4 3 3 3 3 2 3 3 4 4 4 5 6 6 6 5 6 6 7 7 6 7 7 7 8 8 8 9 10 7 9 12 10 10 9 10 10 10 10 10 10 10 11 11 10 9 10 10 8 7 6 5 7 5 5 5 4 5 4 5 5 2 2 2 4 6 7 8 7 8 7 7 8 7 7 7 8 8 8 8 9
6 4 4 4 4 4 5 4 3 3 2 3 4 5 5 5 6 6 6 6 7 6 5 6 6 5 5 7 7 7 9 9 7 5 9 11 9 9 9 9 9 10 10 10 10 11 11 11 10 9 9 9 9 9 8 6 5 6 6 6 5 6 4 5 4 4 2 1 4 4 6 7 8 8 8 8 8 8 7 7 8 8 8 8 8
6 5 5 5 5 5 4 4 3 4 4 4 4 4 5 5 6 7 6 6 7 6 5 5 6 6 6 7 7 6 7 7 7 8 8 4 9 9 9 9 9 10 9 10 10 11 10 10 10 10 8 8 9 9 8 8 7 5 6 6 6 7 7 6 6 5 4 4 3 6 2 6 6 7 8 8 10 9 8 8 8 8 8 9 8
6 6 6 6 6 6 5 4 4 3 3 4 5 4 4 5 6 6 6 6 6 6 4 5 5 8 7 7 7 7 7 8 9 10 12 11 11 10 9 9 9 9 9 10 11 11 11 11 10 9 9 8 9 9 8 8 8 7 6 6 6 6 5 5 5 5 5 4 5 4 4 3 4 5 7 7 7 8 8 8 8 8 8 8 9
6 6 6 5 6 6 6 6 6 4 4 4 4 4 4 4 5 5 7 6 6 5 4 6 5 5 7 8 7 6 7 9 9 8 9 9 9 8 9 10 10 9 7 9 12 11 10 10 10 10 10 11 9 10 10 9 9 8 8 6 5 5 6 5 5 5 6 5 6 5 3 6 5 7 6 7 8 7 8 7 8 9 8 8 8
5 5 5 6 5 6 6 7 7 6 6 6 5 5 4 4 4 5 6 7 7 7 7 6 5 6 6 7 7 7 7 8 7 4 11 11 10 9 10 10 10 9 9 12 11 10 10 10 10 11 12 11 10 10 10 10 9 8 9 7 7 6 6 5 5 5 5 4 5 5 5 4 4 3 5 5 5 6 6 7 7 8 8 7 7
Wind_Direction
151 140 134 123 150 168 152 138 134 131 131 131 132 135 134 131 128 129 130 129 130 131 132 135 134 130 127 127 125 126 125 124 120 119 116 113 110 106 104 102 98 97 101 101 95 87 79 79 91 95 108 115 119 116 111 112 112 108 109 122 128 141 113 102 104 101 103 111 107 114 127 123 123 125 131 123 121 133 134 133 133 128 127 132 120
153 145 138 138 145 171 155 141 137 132 133 130 130 134 133 131 129 130 130 130 130 128 130 131 130 127 124 122 122 122 122 120 117 113 109 106 99 98 99 99 97 98 94 93 97 91 77 70 85 96 99 113 117 113 95 118 99 112 115 112 111 108 112 95 102 109 119 117 115 116 115 119 124 129 128 126 134 135 134 136 133 129 124 120 117
147 145 142 139 146 158 154 144 139 134 131 130 128 130 131 131 129 129 130 129 130 131 131 131 128 125 123 122 121 121 120 115 110 106 106 99 96 93 94 91 90 87 85 89 90 87 79 82 74 80 87 86 69 69 55 13 88 107 117 110 116 130 125 110 92 113 126 129 126 123 111 110 121 121 126 127 135 138 132 141 158 129 118 117 116
145 146 142 132 143 162 151 145 141 137 133 130 127 129 129 130 131 130 129 129 130 131 131 129 126 123 120 118 121 120 115 111 109 110 103 99 92 85 82 81 80 76 81 81 82 93 105 88 58 47 54 71 91 91 104 119 89 91 103 103 116 128 114 115 109 145 137 139 128 122 126 129 122 125 127 129 137 134 133 143 166 121 120 120 121
144 144 139 144 151 159 152 145 142 141 135 129 127 126 128 129 130 130 129 129 130 132 131 129 126 123 121 121 119 115 114 110 112 112 104 94 87 81 76 77 73 71 70 72 73 72 72 74 66 70 48 74 84 89 116 123 85 86 96 97 100 125 137 142 149 153 106 85 98 149 126 120 121 119 123 125 118 125 130 148 140 118 118 122 127
143 142 147 149 150 146 151 145 144 141 137 131 128 127 127 127 127 128 128 131 132 132 131 130 128 126 123 120 119 117 116 121 124 114 106 97 87 79 71 62 61 59 57 56 58 59 60 57 78 80 72 78 90 98 105 91 84 92 89 90 92 99 124 136 132 131 141 136 18 279 115 119 118 122 128 130 135 142 148 153 126 120 123 127 133
145 143 148 150 145 141 148 145 144 141 139 134 128 128 127 128 127 128 129 130 130 128 128 127 126 123 121 120 120 123 127 125 118 109 101 91 80 69 63 56 54 55 60 51 59 60 55 61 68 75 82 77 82 91 81 91 107 90 89 89 88 88 92 117 134 138 134 149 66 290 94 111 128 129 135 130 132 134 138 134 125 126 131 136 142
144 149 148 150 146 137 149 147 144 143 141 136 133 130 131 130 130 126 128 128 127 126 127 125 123 121 120 120 123 125 123 118 113 105 95 87 71 66 62 57 53 47 54 54 56 60 65 58 65 81 78 55 38 48 73 91 86 86 89 88 87 82 72 95 118 140 149 123 147 131 46 124 132 128 147 140 132 137 138 127 122 130 138 148 135
150 150 152 145 140 139 147 147 144 143 142 139 135 133 135 134 132 130 130 128 125 122 119 118 114 113 118 121 122 118 113 109 103 95 87 80 83 75 71 66 61 59 55 53 58 64 65 58 47 45 49 54 53 34 45 73 97 99 97 93 85 72 66 81 103 170 172 133 117 117 115 304 152 146 155 165 162 166 170 133 132 136 142 137 145
150 153 150 146 141 140 148 146 145 144 144 141 138 137 138 138 135 135 132 131 127 125 119 114 114 117 124 121 113 115 111 110 105 99 96 94 90 89 71 69 77 68 61 57 61 64 62 59 58 51 43 48 53 34 19 52 79 97 94 79 86 86 72 61 20 312 349 112 110 119 129 106 304 36 171 170 174 160 147 157 129 146 137 150 147
153 151 153 144 138 143 145 146 148 146 146 143 140 139 140 139 137 136 134 131 130 124 121 124 124 127 127 122 118 114 114 107 103 102 101 98 90 79 79 79 69 69 60 64 63 61 61 58 51 49 41 48 42 49 48 53 60 76 95 95 80 98 93 95 50 336 303 95 120 124 128 132 135 358 251 207 147 127 148 139 134 135 146 147 131
154 151 150 143 135 143 144 145 148 149 149 145 141 142 142 142 141 136 134 132 133 131 131 131 130 131 134 127 118 116 111 107 99 90 92 92 86 82 80 74 78 91 96 75 76 68 63 81 64 46 26 41 51 46 59 51 51 49 72 103 104 99 115 131 236 188 90 65 84 123 139 139 150 175 205 168 148 156 148 142 143 147 150 136 145
155 154 149 147 144 144 146 147 150 152 154 146 144 143 143 141 136 140 138 137 134 133 133 136 139 148 140 125 123 119 109 103 100 96 87 87 85 83 81 80 75 73 87 91 80 82 79 95 112 96 60 58 78 83 74 63 27 19 16 54 47 72 82 20 200 123 114 96 0 145 135 139 140 165 162 154 160 161 152 153 150 154 144 147 152
159 155 153 150 145 147 148 150 152 154 155 149 147 143 142 144 142 140 142 138 141 139 138 145 153 147 139 135 131 122 117 118 117 112 111 95 94 81 73 77 78 77 79 80 85 90 76 85 110 105 107 86 85 86 87 81 56 36 20 16 24 39 20 284 300 158 134 140 169 206 67 114 132 147 145 153 160 155 155 151 156 152 150 153 154
161 156 153 153 147 154 152 154 154 156 157 151 150 146 145 145 147 145 148 149 148 143 147 159 153 152 145 145 141 135 137 138 137 131 119 102 91 90 82 78 66 52 61 93 111 105 115 128 117 124 127 121 104 104 107 103 64 45 23 340 327 280 253 246 206 180 173 158 156 181 141 176 141 170 143 155 155 156 151 155 154 154 155 157 156
161 154 156 153 152 153 160 156 157 159 156 155 155 152 150 153 156 157 155 154 154 155 160 163 156 156 152 149 149 146 148 149 147 144 124 114 98 90 84 79 64 55 67 90 94 106 117 115 109 116 126 131 128 129 114 121 102 130 124 331 310 262 234 297 247 218 183 172 161 188 127 162 161 149 150 154 158 154 156 157 154 159 159 159 159
158 159 157 156 157 161 160 162 160 159 159 160 159 157 160 164 166 166 163 164 165 164 169 163 161 158 163 158 161 160 161 165 168 158 146 123 110 86 78 80 80 67 66 73 96 102 113 113 110 109 120 117 124 130 181 186 134 146 151 193 279 246 261 271 266 220 209 153 155 174 152 147 152 153 150 157 157 156 158 160 158 159 161 160 161
156 159 158 160 158 165 166 165 161 167 165 164 167 165 171 174 175 173 173 173 171 171 172 170 169 174 173 171 166 166 176 179 179 163 160 135 118 99 74 61 81 78 82 106 91 115 123 109 101 117 134 136 142 174 226 233 223 181 175 168 181 182 244 267 262 247 252 190 196 182 182 136 146 155 157 160 159 160 160 162 161 163 160 162 163
158 162 161 162 165 170 169 168 171 173 172 179 178 173 181 180 181 178 178 177 176 178 178 176 178 183 177 175 170 179 186 185 180 177 163 155 109 136 60 50 83 95 64 70 91 114 112 107 95 95 124 135 145 225 219 234 211 207 215 193 225 216 228 237 241 252 246 223 206 185 133 133 152 158 161 166 163 165 164 165 166 166 165 164 167
161 165 164 170 171 175 175 175 175 176 180 182 180 181 184 185 188 185 183 182 182 183 181 180 183 186 185 177 180 188 193 187 189 186 146 156 102 38 53 33 90 109 112 196 143 130 137 116 138 129 133 148 161 207 215 238 237 217 217 208 221 224 220 229 250 254 240 227 246 199 120 146 158 162 169 173 172 171 167 169 168 169 171 172 172
165 175 175 174 180 182 180 178 177 181 181 183 182 186 181 189 192 191 189 187 185 187 186 184 184 193 193 192 191 215 192 182 182 193 156 154 86 89 33 14 81 113 131 294 227 160 183 175 158 146 156 172 173 191 197 208 217 232 235 222 211 231 227 242 231 222 230 229 201 183 132 153 171 171 177 180 182 175 174 174 174 173 175 178 178
177 177 181 182 185 187 185 180 174 183 176 184 184 190 176 194 194 188 194 192 192 191 192 202 189 194 207 186 213 205 206 198 186 195 191 142 144 61 21 11 39 123 133 137 241 178 174 172 169 156 151 177 168 170 193 196 188 208 224 210 223 221 225 238 235 230 218 231 223 114 146 162 180 185 184 197 190 185 181 179 180 180 183 184 184
184 182 179 188 191 188 190 184 175 179 175 178 183 194 175 193 195 189 194 201 194 197 201 204 198 208 194 206 208 210 221 178 204 6 13 35 295 96 226 291 280 251 186 129 137 90 193 209 184 159 166 177 169 165 162 163 182 200 209 213 221 224 229 234 240 247 220 222 222 117 140 178 187 193 193 195 205 191 197 185 185 188 190 190 188
185 183 178 185 193 194 193 193 174 183 182 181 189 192 181 195 197 196 199 195 202 200 209 201 207 205 208 214 210 201 205 215 107 172 230 229 164 174 181 233 227 207 178 161 136 145 190 204 187 159 142 149 165 168 185 180 199 213 211 240 209 215 231 222 229 230 228 184 221 121 153 199 200 199 203 199 201 200 197 204 204 196 199 194 195
190 187 181 184 191 193 191 192 187 188 182 185 190 198 182 198 198 200 202 203 206 200 205 202 204 206 213 222 234 175 220 225 194 218 256 347 305 307 198 310 350 43 207 19 147 156 171 175 157 154 185 187 197 176 179 169 183 204 213 225 230 229 222 232 231 234 229 195 198 141 174 207 205 205 207 206 204 203 199 203 210 213 215 204 200
185 197 188 183 192 193 192 189 188 190 187 197 196 185 188 201 199 204 208 209 207 209 209 202 198 202 211 216 239 202 231 232 216 243 256 256 284 291 321 322 332 323 346 338 32 86 144 120 128 144 160 189 170 173 171 172 165 189 206 214 228 235 232 224 224 223 230 219 181 157 184 205 207 206 209 210 208 208 203 207 205 207 220 216 209
193 204 192 188 192 197 195 195 191 192 194 198 200 196 197 206 203 204 214 212 211 213 216 212 205 194 210 225 224 225 229 247 224 229 276 275 284 299 329 313 311 320 1 330 37 40 53 96 121 128 138 145 148 147 142 212 190 189 178 199 213 226 241 232 222 217 223 214 182 168 184 201 206 207 208 211 211 211 206 210 208 212 209 222 210
213 206 201 196 195 198 195 202 193 197 197 198 205 209 202 204 210 202 219 223 224 219 222 216 204 191 217 220 235 245 240 240 249 245 245 266 278 288 293 299 315 322 359 339 19 37 73 71 77 80 105 131 134 144 175 188 194 159 222 176 212 238 229 236 241 225 219 210 199 177 190 199 204 207 208 209 214 213 213 212 214 215 212 215 214
218 220 210 206 198 206 195 209 203 203 201 204 207 213 207 208 208 209 210 214 230 240 228 224 219 210 194 224 223 245 241 253 258 261 271 295 295 288 293 307 321 320 311 322 17 29 43 86 160 202 117 185 152 128 108 82 174 206 231 145 193 239 209 229 240 218 223 213 207 171 184 195 204 205 206 209 215 217 216 216 217 219 219 219 216
230 243 237 216 213 204 208 208 217 208 216 213 216 214 213 211 209 216 220 202 229 234 247 234 229 227 211 203 232 251 252 250 246 261 287 278 286 291 285 279 305 295 300 328 344 5 30 46 101 1 357 6 40 65 74 70 297 303 268 264 190 211 194 212 227 224 206 215 211 189 179 198 205 204 209 212 215 221 222 218 217 218 222 221 220
257 233 230 229 209 222 218 222 224 221 225 228 223 223 220 220 214 207 213 218 216 223 226 242 247 228 227 181 223 233 262 261 265 272 266 268 269 270 275 289 289 292 319 295 327 13 351 15 50 98 349 10 43 17 138 99 291 285 280 221 201 221 196 206 222 218 208 206 199 206 176 194 202 204 209 213 218 220 224 222 215 218 219 219 222
240 237 227 241 241 223 229 221 239 236 237 239 231 236 228 225 220 219 221 220 217 227 230 231 230 239 235 200 218 235 236 261 279 278 273 277 281 282 283 277 274 289 304 295 307 3 324 344 67 71 117 161 143 132 71 132 216 204 222 233 219 197 190 211 216 204 210 206 205 202 194 186 197 204 209 215 218 219 218 221 219 217 219 219 219
241 238 259 264 269 267 245 240 252 273 258 244 241 248 257 250 233 232 228 225 226 229 235 235 235 227 219 221 222 230 238 253 256 260 273 273 274 284 286 284 279 282 283 309 313 295 281 292 55 81 86 67 116 59 22 43 120 174 220 298 221 187 207 213 215 215 210 198 204 206 203 192 192 198 208 211 216 217 217 215 220 219 218 220 221
263 248 229 243 257 307 323 344 160 239 270 294 321 315 327 308 293 258 232 233 238 243 238 240 238 236 225 213 217 222 234 244 254 256 266 272 274 271 274 282 288 267 284 280 290 287 296 306 332 14 356 119 308 8 54 60 322 272 298 236 245 149 167 228 198 207 211 208 202 205 210 206 196 193 198 210 213 216 217 217 217 219 217 218 221
241 249 250 234 213 207 223 229 219 191 219 230 244 253 282 281 279 288 270 235 247 248 252 246 241 240 233 220 219 225 228 234 242 259 262 261 268 268 267 270 274 283 271 275 276 288 282 262 188 209 202 155 98 40 293 227 206 250 256 249 239 216 202 201 203 197 216 198 211 205 213 214 202 203 197 197 205 212 213 215 216 218 219 220 221
229 227 234 231 246 232 221 214 225 211 208 224 231 232 237 244 257 258 275 293 265 250 250 253 252 242 239 242 227 229 231 234 239 238 255 262 265 271 267 266 269 262 269 273 278 268 258 267 203 276 301 27 46 247 240 268 229 239 237 237 242 226 215 200 187 193 197 206 199 204 203 211 211 206 208 210 201 200 207 212 215 217 219 222 222
229 233 225 218 227 234 234 228 235 241 232 222 225 235 240 243 250 264 276 265 285 285 274 268 257 251 254 255 234 229 232 234 229 231 240 251 255 258 260 257 252 255 265 267 260 262 266 253 174 248 255 232 233 200 233 255 237 236 211 256 255 239 226 199 190 189 180 201 205 209 204 210 210 217 214 218 212 202 193 206 209 214 219 220 221
214 217 229 230 227 225 235 240 243 241 235 232 232 229 235 246 248 248 245 266 254 255 275 308 302 298 268 247 248 241 241 233 232 230 238 253 262 267 271 274 276 265 260 266 265 263 254 256 252 215 232 237 218 209 201 235 192 217 225 226 240 250 235 212 191 190 180 188 197 206 215 213 210 211 220 222 216 214 191 196 204 210 216 220 221
226 219 223 231 236 228 210 220 226 221 224 226 216 213 219 227 228 240 239 235 246 251 255 250 239 241 271 272 243 239 236 235 234 227 235 241 244 245 252 257 258 261 261 259 259 255 258 257 252 249 243 261 281 205 184 158 245 238 272 222 205 219 241 212 194 189 184 186 190 194 212 216 215 214 218 218 216 216 213 191 196 207 211 214 220
218 215 213 215 212 221 224 221 228 223 207 218 224 231 235 228 225 228 238 236 236 231 234 239 230 240 250 267 268 241 241 237 234 231 238 243 247 244 244 249 250 252 252 257 258 249 236 242 249 255 247 241 229 247 216 207 231 196 183 189 189 209 224 204 193 189 186 183 182 196 200 212 215 209 213 217 217 215 213 209 204 203 211 201 210
222 227 220 221 226 230 221 224 228 229 225 220 222 225 227 233 230 226 231 235 232 235 235 234 236 240 243 242 256 285 243 227 231 233 235 234 243 250 252 249 253 255 255 253 255 260 256 255 255 250 257 251 256 238 232 259 262 245 202 233 238 176 183 195 184 192 188 177 191 192 200 207 216 211 206 212 216 216 214 212 213 213 210 211 198
94 300 280 266 239 228 239 235 223 211 225 237 235 239 236 234 228 236 236 233 230 228 244 242 239 243 238 239 245 251 260 238 233 227 230 238 236 239 236 241 248 253 254 254 257 256 250 245 248 249 235 250 255 251 248 236 232 236 270 266 207 126 112 180 195 193 190 179 184 191 202 203 214 217 210 202 212 216 219 217 216 217 215 211 210
36 20 340 295 281 265 253 245 231 220 181 236 236 232 227 226 234 244 232 231 223 234 245 271 267 251 251 250 226 243 248 245 252 236 233 232 239 244 247 246 246 247 247 244 240 240 239 237 237 247 253 238 245 245 234 236 272 280 261 267 227 107 308 279 239 201 187 183 181 190 196 203 208 218 213 218 210 213 217 219 219 220 218 219 218
52 42 322 302 295 288 286 267 246 233 218 201 227 236 233 230 236 243 245 247 254 239 243 238 241 250 250 241 237 237 233 228 239 257 231 253 236 241 243 246 245 247 252 251 245 241 230 230 236 235 238 254 240 242 228 218 259 280 262 262 309 290 163 242 198 209 205 173 186 187 194 201 203 212 221 216 218 214 215 216 216 219 221 221 224
43 34 7 356 306 298 281 281 274 248 230 229 224 230 230 236 241 246 252 256 251 255 255 252 245 245 248 240 238 237 232 224 230 241 271 242 231 234 241 247 247 249 250 246 242 242 237 232 230 237 233 238 240 245 230 231 235 253 288 279 264 251 320 44 350 67 142 182 184 189 198 199 195 201 216 221 225 218 215 216 216 214 215 221 224
41 26 7 4 352 325 307 288 276 260 254 232 230 220 225 238 227 231 233 232 248 239 241 249 241 233 235 242 233 234 233 236 245 203 231 256 225 224 228 234 244 242 241 248 250 239 235 235 230 228 230 228 247 243 242 217 255 238 232 258 294 311 313 326 315 161 242 115 162 195 192 201 197 199 209 219 218 229 217 218 212 214 215 219 221
44 49 47 24 5 355 339 331 314 308 277 259 240 223 227 233 239 245 248 247 261 266 266 264 265 253 245 246 247 249 249 242 243 267 225 236 238 230 226 229 240 247 241 239 242 244 238 232 233 227 228 229 221 237 243 237 227 239 229 243 248 256 261 283 300 319 260 120 296 180 202 197 201 203 209 210 212 218 222 221 217 213 211 218 221
36 40 52 57 46 28 2 348 338 338 327 300 270 255 248 240 238 237 243 248 247 262 272 277 270 264 258 259 257 252 257 238 228 248 249 263 258 238 227 231 235 238 238 239 239 241 242 241 231 231 231 226 226 230 235 235 228 225 242 240 233 239 254 255 265 287 289 278 205 223 189 194 209 207 211 212 209 210 218 215 215 216 216 212 215
49 43 43 43 49 50 46 25 14 340 338 329 321 303 276 281 277 267 253 255 264 263 236 214 237 263 262 260 255 255 262 267 252 228 235 213 217 230 230 230 230 231 238 237 236 239 237 239 232 225 228 226 225 225 234 237 238 234 225 232 244 249 246 243 247 242 275 279 276 256 191 160 236 247 212 215 212 209 215 216 214 217 220 216 214
50 48 45 42 47 48 51 46 42 21 8 348 329 314 311 297 284 287 288 286 289 288 284 273 274 276 275 268 265 258 248 253 257 273 266 247 247 238 233 229 229 225 224 252 245 236 235 232 230 229 225 227 228 226 225 229 236 240 236 232 229 242 254 259 242 242 242 259 277 273 256 208 205 230 208 205 212 216 218 216 209 218 221 219 211
59 55 51 48 40 37 41 49 43 39 32 20 7 353 331 322 301 301 300 296 295 292 293 285 279 271 270 271 269 258 257 253 238 239 272 251 238 238 239 229 227 225 214 226 235 235 229 226 226 226 232 234 231 229 228 231 236 235 244 240 237 233 235 240 243 246 255 251 253 257 248 257 273 259 227 207 187 206 217 220 212 219 222 221 218